QPF
0.00 0.00 0.00 0.01 0.01 0.02 0.01 0.01 0.02 0.02 0.02 0.02 0.01 0.02 0.01 0.01 0.02 0.03 0.02 0.03 0.05 0.08 0.10 0.09 0.07 0.07 0.07 0.05 0.04 0.05 0.05 0.07 0.11 0.13 0.09 0.08 0.09 0.07 0.06 0.04 0.04 0.03 0.03 0.03 0.03 0.03 0.04 0.04 0.04
0.00 0.00 0.00 0.01 0.02 0.02 0.01 0.01 0.02 0.02 0.01 0.01 0.02 0.03 0.04 0.02 0.01 0.01 0.01 0.02 0.03 0.05 0.08 0.08 0.05 0.05 0.05 0.04 0.03 0.04 0.07 0.08 0.08 0.08 0.08 0.09 0.09 0.07 0.06 0.06 0.04 0.02 0.02 0.02 0.02 0.03 0.04 0.03 0.02
0.00 0.00 0.01 0.01 0.01 0.01 0.01 0.01 0.02 0.02 0.01 0.01 0.02 0.01 0.02 0.02 0.01 0.01 0.01 0.00 0.02 0.04 0.06 0.06 0.03 0.03 0.03 0.03 0.03 0.04 0.05 0.07 0.07 0.07 0.07 0.07 0.07 0.05 0.05 0.04 0.03 0.02 0.02 0.02 0.02 0.02 0.04 0.02 0.02
0.00 0.00 0.00 0.01 0.01 0.00 0.00 0.01 0.01 0.02 0.02 0.01 0.02 0.01 0.01 0.01 0.01 0.01 0.01 0.00 0.02 0.03 0.04 0.04 0.04 0.03 0.03 0.03 0.03 0.04 0.05 0.06 0.06 0.07 0.07 0.07 0.07 0.06 0.05 0.04 0.03 0.02 0.02 0.02 0.02 0.03 0.04 0.02 0.01
0.00 0.00 0.01 0.01 0.01 0.00 0.01 0.00 0.01 0.01 0.02 0.02 0.02 0.01 0.03 0.02 0.01 0.00 0.00 0.00 0.02 0.02 0.02 0.03 0.03 0.02 0.02 0.03 0.03 0.03 0.03 0.03 0.04 0.05 0.07 0.07 0.07 0.07 0.07 0.04 0.04 0.02 0.02 0.02 0.02 0.03 0.03 0.02 0.01
0.00 0.00 0.01 0.02 0.01 0.01 0.01 0.00 0.00 0.01 0.02 0.02 0.01 0.01 0.02 0.02 0.01 0.00 0.00 0.00 0.01 0.02 0.02 0.03 0.02 0.02 0.02 0.02 0.02 0.02 0.03 0.03 0.03 0.03 0.06 0.09 0.10 0.11 0.12 0.06 0.04 0.04 0.02 0.02 0.02 0.03 0.03 0.02 0.02
0.00 0.00 0.01 0.01 0.01 0.01 0.01 0.00 0.00 0.01 0.02 0.02 0.01 0.01 0.01 0.01 0.01 0.01 0.00 0.01 0.01 0.01 0.02 0.03 0.03 0.04 0.03 0.03 0.03 0.04 0.04 0.03 0.02 0.02 0.04 0.05 0.08 0.07 0.06 0.04 0.03 0.04 0.03 0.02 0.03 0.03 0.04 0.03 0.03
0.00 0.00 0.00 0.01 0.01 0.01 0.00 0.00 0.00 0.00 0.01 0.02 0.02 0.01 0.01 0.01 0.01 0.01 0.01 0.01 0.01 0.01 0.01 0.02 0.03 0.04 0.04 0.04 0.04 0.04 0.04 0.03 0.03 0.04 0.04 0.04 0.05 0.06 0.05 0.05 0.05 0.05 0.04 0.03 0.04 0.04 0.04 0.03 0.03
0.00 0.00 0.00 0.00 0.01 0.01 0.00 0.00 0.01 0.00 0.00 0.00 0.00 0.00 0.00 0.01 0.01 0.02 0.01 0.02 0.01 0.01 0.01 0.01 0.02 0.03 0.04 0.03 0.02 0.05 0.04 0.04 0.05 0.07 0.08 0.07 0.10 0.08 0.07 0.04 0.05 0.06 0.05 0.06 0.05 0.05 0.05 0.05 0.05
0.00 0.00 0.00 0.00 0.00 0.00 0.00 0.00 0.00 0.00 0.00 0.00 0.01 0.00 0.00 0.01 0.02 0.02 0.02 0.01 0.01 0.01 0.01 0.01 0.01 0.01 0.02 0.02 0.03 0.06 0.05 0.05 0.06 0.09 0.10 0.10 0.09 0.08 0.06 0.07 0.06 0.07 0.07 0.07 0.06 0.05 0.04 0.04 0.04
0.00 0.01 0.00 0.00 0.00 0.00 0.00 0.00 0.00 0.00 0.00 0.01 0.01 0.00 0.01 0.02 0.03 0.02 0.01 0.01 0.01 0.01 0.02 0.02 0.01 0.01 0.02 0.03 0.03 0.05 0.06 0.06 0.06 0.09 0.09 0.09 0.07 0.06 0.06 0.09 0.09 0.08 0.07 0.07 0.07 0.05 0.04 0.03 0.03
0.00 0.01 0.00 0.00 0.00 0.00 0.00 0.00 0.00 0.00 0.00 0.00 0.00 0.00 0.00 0.00 0.01 0.01 0.01 0.01 0.01 0.02 0.01 0.02 0.02 0.02 0.02 0.02 0.03 0.04 0.05 0.06 0.06 0.06 0.06 0.06 0.06 0.05 0.05 0.08 0.08 0.09 0.08 0.09 0.08 0.07 0.06 0.04 0.03
0.00 0.00 0.00 0.00 0.00 0.00 0.00 0.00 0.00 0.01 0.01 0.00 0.00 0.00 0.00 0.00 0.01 0.01 0.02 0.02 0.01 0.00 0.00 0.01 0.02 0.03 0.03 0.04 0.03 0.02 0.04 0.06 0.04 0.05 0.04 0.03 0.06 0.05 0.06 0.07 0.09 0.08 0.07 0.07 0.07 0.07 0.06 0.05 0.03
0.00 0.00 0.00 0.00 0.00 0.00 0.00 0.00 0.00 0.00 0.00 0.00 0.01 0.00 0.00 0.00 0.01 0.01 0.01 0.01 0.01 0.00 0.00 0.01 0.02 0.03 0.05 0.05 0.04 0.03 0.03 0.05 0.04 0.05 0.04 0.03 0.05 0.07 0.06 0.06 0.09 0.08 0.07 0.07 0.08 0.08 0.08 0.07 0.06
0.00 0.00 0.00 0.00 0.00 0.00 0.00 0.00 0.00 0.00 0.00 0.00 0.00 0.00 0.00 0.00 0.00 0.01 0.01 0.01 0.01 0.01 0.00 0.01 0.03 0.03 0.04 0.04 0.05 0.04 0.04 0.04 0.05 0.05 0.03 0.03 0.03 0.06 0.06 0.06 0.07 0.06 0.06 0.08 0.08 0.08 0.08 0.06 0.04
0.00 0.01 0.01 0.01 0.00 0.00 0.00 0.00 0.00 0.00 0.00 0.00 0.00 0.00 0.00 0.01 0.00 0.01 0.02 0.01 0.02 0.02 0.01 0.01 0.01 0.02 0.04 0.05 0.05 0.05 0.05 0.04 0.04 0.03 0.02 0.01 0.01 0.02 0.04 0.05 0.05 0.06 0.08 0.09 0.09 0.08 0.07 0.06 0.05
0.01 0.02 0.01 0.00 0.00 0.00 0.00 0.00 0.00 0.00 0.00 0.00 0.00 0.01 0.01 0.01 0.01 0.01 0.01 0.01 0.02 0.02 0.02 0.02 0.02 0.03 0.04 0.03 0.03 0.04 0.04 0.04 0.03 0.01 0.01 0.02 0.02 0.01 0.02 0.05 0.06 0.06 0.08 0.09 0.07 0.06 0.06 0.05 0.06
0.01 0.01 0.01 0.00 0.00 0.00 0.00 0.00 0.00 0.00 0.00 0.00 0.01 0.01 0.01 0.02 0.02 0.01 0.01 0.01 0.01 0.01 0.01 0.01 0.02 0.03 0.04 0.03 0.02 0.03 0.03 0.03 0.03 0.03 0.03 0.04 0.03 0.02 0.03 0.05 0.06 0.07 0.09 0.11 0.10 0.09 0.08 0.06 0.06
0.00 0.01 0.00 0.00 0.00 0.00 0.00 0.00 0.00 0.00 0.01 0.01 0.00 0.00 0.01 0.01 0.02 0.02 0.01 0.01 0.00 0.00 0.00 0.01 0.02 0.03 0.04 0.04 0.03 0.03 0.04 0.04 0.04 0.03 0.03 0.04 0.04 0.04 0.06 0.06 0.09 0.08 0.10 0.13 0.11 0.11 0.11 0.07 0.07
0.00 0.00 0.00 0.00 0.00 0.00 0.00 0.00 0.00 0.00 0.01 0.01 0.01 0.01 0.01 0.00 0.01 0.01 0.00 0.00 0.00 0.01 0.01 0.01 0.02 0.02 0.03 0.03 0.02 0.03 0.04 0.03 0.04 0.03 0.04 0.05 0.06 0.06 0.06 0.08 0.09 0.10 0.11 0.13 0.14 0.13 0.12 0.08 0.08
0.00 0.00 0.00 0.00 0.00 0.00 0.00 0.00 0.00 0.00 0.00 0.00 0.01 0.01 0.00 0.00 0.01 0.02 0.02 0.01 0.02 0.03 0.04 0.04 0.03 0.03 0.03 0.03 0.03 0.04 0.04 0.05 0.06 0.08 0.08 0.08 0.08 0.07 0.06 0.07 0.07 0.08 0.10 0.11 0.12 0.12 0.12 0.10 0.08
0.00 0.00 0.00 0.00 0.00 0.00 0.00 0.01 0.00 0.00 0.00 0.01 0.01 0.00 0.01 0.01 0.01 0.01 0.02 0.02 0.04 0.05 0.04 0.06 0.09 0.06 0.04 0.03 0.04 0.05 0.04 0.05 0.08 0.11 0.10 0.12 0.10 0.06 0.05 0.06 0.07 0.08 0.07 0.10 0.10 0.10 0.11 0.11 0.10
0.00 0.00 0.00 0.00 0.01 0.00 0.00 0.00 0.01 0.00 0.00 0.00 0.00 0.01 0.01 0.01 0.01 0.01 0.02 0.01 0.02 0.01 0.01 0.03 0.07 0.09 0.07 0.05 0.04 0.05 0.06 0.07 0.11 0.11 0.09 0.08 0.06 0.05 0.06 0.06 0.08 0.08 0.06 0.07 0.09 0.10 0.12 0.10 0.09
0.00 0.00 0.00 0.00 0.00 0.00 0.00 0.00 0.00 0.00 0.00 0.01 0.01 0.00 0.01 0.02 0.02 0.01 0.01 0.01 0.01 0.00 0.01 0.02 0.03 0.05 0.08 0.08 0.06 0.05 0.06 0.05 0.06 0.07 0.08 0.07 0.05 0.05 0.05 0.06 0.08 0.09 0.10 0.09 0.09 0.11 0.13 0.11 0.09
0.00 0.00 0.01 0.01 0.00 0.00 0.00 0.00 0.00 0.00 0.00 0.00 0.01 0.01 0.01 0.01 0.01 0.01 0.00 0.00 0.01 0.00 0.01 0.02 0.02 0.03 0.04 0.06 0.06 0.05 0.05 0.05 0.04 0.05 0.06 0.06 0.05 0.05 0.07 0.08 0.11 0.11 0.12 0.11 0.11 0.15 0.14 0.12 0.09
0.00 0.00 0.00 0.00 0.00 0.00 0.00 0.00 0.00 0.00 0.00 0.00 0.00 0.01 0.01 0.02 0.01 0.01 0.00 0.00 0.00 0.00 0.01 0.02 0.03 0.04 0.04 0.04 0.04 0.04 0.04 0.04 0.04 0.05 0.05 0.05 0.04 0.03 0.03 0.04 0.06 0.05 0.05 0.05 0.07 0.11 0.13 0.15 0.12
0.00 0.00 0.00 0.00 0.00 0.00 0.00 0.00 0.00 0.00 0.00 0.00 0.00 0.01 0.02 0.02 0.02 0.02 0.01 0.01 0.01 0.01 0.01 0.02 0.03 0.04 0.04 0.04 0.04 0.05 0.05 0.04 0.04 0.04 0.04 0.03 0.02 0.02 0.02 0.02 0.03 0.03 0.03 0.04 0.05 0.05 0.09 0.14 0.19
0.00 0.00 0.00 0.00 0.00 0.00 0.00 0.00 0.00 0.00 0.00 0.01 0.01 0.01 0.01 0.01 0.01 0.01 0.01 0.01 0.01 0.01 0.02 0.02 0.03 0.04 0.04 0.05 0.05 0.04 0.04 0.03 0.03 0.03 0.03 0.02 0.02 0.02 0.02 0.02 0.03 0.03 0.03 0.03 0.04 0.04 0.05 0.06 0.09
0.00 0.00 0.00 0.00 0.00 0.00 0.00 0.00 0.00 0.00 0.00 0.00 0.01 0.01 0.01 0.00 0.00 0.00 0.00 0.00 0.01 0.02 0.03 0.04 0.05 0.06 0.07 0.07 0.07 0.05 0.03 0.03 0.03 0.03 0.02 0.03 0.03 0.02 0.03 0.03 0.04 0.03 0.02 0.02 0.02 0.02 0.02 0.04 0.05
0.00 0.00 0.00 0.00 0.00 0.00 0.00 0.00 0.00 0.00 0.00 0.00 0.00 0.01 0.01 0.01 0.00 0.00 0.00 0.00 0.01 0.01 0.02 0.03 0.05 0.06 0.08 0.08 0.06 0.04 0.03 0.02 0.02 0.03 0.03 0.02 0.03 0.02 0.02 0.03 0.03 0.02 0.02 0.02 0.02 0.02 0.02 0.03 0.04
MSLP
1007.28 1007.65 1008.20 1008.86 1009.55 1010.16 1010.65 1010.97 1011.14 1011.18 1011.17 1011.16 1011.18 1011.27 1011.40 1011.55 1011.69 1011.79 1011.84 1011.87 1011.91 1011.98 1012.12 1012.33 1012.61 1012.92 1013.21 1013.44 1013.61 1013.71 1013.77 1013.85 1013.99 1014.22 1014.56 1014.97 1015.42 1015.84 1016.20 1016.44 1016.57 1016.61 1016.60 1016.60 1016.63 1016.71 1016.83 1016.97 1017.08
1007.23 1007.73 1008.40 1009.15 1009.87 1010.48 1010.93 1011.18 1011.27 1011.22 1011.13 1011.04 1011.00 1011.03 1011.13 1011.26 1011.40 1011.52 1011.62 1011.71 1011.83 1012.00 1012.24 1012.56 1012.92 1013.29 1013.62 1013.89 1014.06 1014.16 1014.22 1014.29 1014.42 1014.63 1014.95 1015.33 1015.74 1016.12 1016.43 1016.62 1016.72 1016.74 1016.73 1016.73 1016.76 1016.85 1016.98 1017.11 1017.20
1007.27 1007.89 1008.65 1009.45 1010.19 1010.78 1011.17 1011.36 1011.37 1011.26 1011.12 1010.99 1010.92 1010.93 1011.01 1011.13 1011.27 1011.39 1011.50 1011.63 1011.79 1012.01 1012.32 1012.70 1013.13 1013.56 1013.94 1014.24 1014.44 1014.56 1014.62 1014.70 1014.82 1015.02 1015.30 1015.65 1016.01 1016.33 1016.58 1016.74 1016.81 1016.82 1016.81 1016.83 1016.89 1016.99 1017.12 1017.24 1017.30
1007.39 1008.10 1008.92 1009.74 1010.46 1011.01 1011.34 1011.47 1011.44 1011.30 1011.14 1011.01 1010.95 1010.97 1011.05 1011.17 1011.29 1011.40 1011.50 1011.62 1011.78 1012.02 1012.36 1012.77 1013.24 1013.71 1014.14 1014.48 1014.72 1014.86 1014.96 1015.05 1015.17 1015.36 1015.62 1015.92 1016.23 1016.50 1016.70 1016.83 1016.88 1016.89 1016.90 1016.94 1017.02 1017.14 1017.27 1017.37 1017.39
1007.55 1008.32 1009.15 1009.96 1010.64 1011.13 1011.41 1011.50 1011.45 1011.31 1011.17 1011.07 1011.05 1011.11 1011.21 1011.34 1011.45 1011.53 1011.60 1011.69 1011.83 1012.05 1012.38 1012.80 1013.28 1013.78 1014.23 1014.61 1014.89 1015.07 1015.20 1015.32 1015.45 1015.64 1015.88 1016.15 1016.42 1016.65 1016.82 1016.92 1016.97 1016.99 1017.01 1017.07 1017.17 1017.29 1017.40 1017.46 1017.45
1007.71 1008.50 1009.32 1010.07 1010.70 1011.13 1011.37 1011.43 1011.38 1011.28 1011.19 1011.16 1011.20 1011.31 1011.45 1011.58 1011.68 1011.74 1011.77 1011.81 1011.91 1012.10 1012.40 1012.80 1013.28 1013.78 1014.25 1014.65 1014.96 1015.19 1015.35 1015.50 1015.65 1015.85 1016.08 1016.33 1016.57 1016.78 1016.93 1017.02 1017.06 1017.09 1017.13 1017.19 1017.28 1017.39 1017.47 1017.49 1017.43
1007.87 1008.63 1009.39 1010.08 1010.63 1011.01 1011.21 1011.27 1011.24 1011.20 1011.18 1011.23 1011.35 1011.53 1011.71 1011.86 1011.95 1011.99 1011.98 1011.98 1012.03 1012.17 1012.44 1012.81 1013.27 1013.76 1014.23 1014.64 1014.97 1015.22 1015.41 1015.59 1015.76 1015.97 1016.20 1016.45 1016.68 1016.88 1017.01 1017.10 1017.14 1017.16 1017.19 1017.24 1017.32 1017.39 1017.42 1017.40 1017.28
1008.01 1008.71 1009.40 1010.01 1010.49 1010.81 1010.99 1011.06 1011.07 1011.09 1011.15 1011.29 1011.49 1011.72 1011.94 1012.11 1012.21 1012.22 1012.19 1012.16 1012.17 1012.28 1012.51 1012.85 1013.28 1013.75 1014.20 1014.61 1014.94 1015.21 1015.41 1015.60 1015.79 1016.01 1016.24 1016.49 1016.71 1016.90 1017.03 1017.11 1017.14 1017.15 1017.16 1017.18 1017.22 1017.24 1017.22 1017.14 1016.98
1008.15 1008.78 1009.38 1009.90 1010.31 1010.58 1010.75 1010.83 1010.89 1010.97 1011.11 1011.32 1011.58 1011.87 1012.12 1012.31 1012.40 1012.41 1012.37 1012.32 1012.32 1012.41 1012.61 1012.92 1013.33 1013.77 1014.20 1014.59 1014.91 1015.16 1015.37 1015.55 1015.74 1015.96 1016.19 1016.43 1016.65 1016.83 1016.95 1017.01 1017.03 1017.02 1017.00 1016.98 1016.96 1016.93 1016.86 1016.73 1016.54
1008.30 1008.85 1009.37 1009.81 1010.15 1010.39 1010.55 1010.65 1010.75 1010.89 1011.08 1011.34 1011.65 1011.96 1012.23 1012.43 1012.53 1012.54 1012.50 1012.45 1012.45 1012.54 1012.73 1013.03 1013.41 1013.83 1014.23 1014.59 1014.88 1015.10 1015.29 1015.45 1015.62 1015.82 1016.04 1016.27 1016.47 1016.64 1016.76 1016.80 1016.80 1016.76 1016.71 1016.64 1016.57 1016.49 1016.37 1016.20 1015.98
1008.49 1008.98 1009.42 1009.79 1010.08 1010.29 1010.44 1010.56 1010.69 1010.86 1011.08 1011.37 1011.68 1012.00 1012.27 1012.46 1012.57 1012.59 1012.56 1012.53 1012.55 1012.65 1012.85 1013.15 1013.52 1013.91 1014.28 1014.60 1014.85 1015.03 1015.18 1015.30 1015.44 1015.61 1015.80 1016.01 1016.20 1016.35 1016.45 1016.49 1016.47 1016.40 1016.31 1016.21 1016.09 1015.96 1015.80 1015.60 1015.38
1008.73 1009.17 1009.56 1009.88 1010.13 1010.32 1010.46 1010.58 1010.71 1010.89 1011.12 1011.39 1011.69 1011.98 1012.24 1012.42 1012.52 1012.55 1012.54 1012.54 1012.58 1012.71 1012.93 1013.23 1013.60 1013.97 1014.31 1014.60 1014.80 1014.95 1015.04 1015.12 1015.22 1015.34 1015.50 1015.68 1015.85 1015.99 1016.08 1016.10 1016.07 1015.99 1015.87 1015.73 1015.58 1015.42 1015.23 1015.02 1014.79
1009.02 1009.44 1009.79 1010.08 1010.30 1010.46 1010.59 1010.70 1010.82 1010.97 1011.17 1011.41 1011.67 1011.92 1012.14 1012.30 1012.39 1012.43 1012.44 1012.46 1012.54 1012.69 1012.94 1013.25 1013.61 1013.97 1014.30 1014.55 1014.73 1014.83 1014.88 1014.92 1014.96 1015.04 1015.16 1015.31 1015.46 1015.59 1015.67 1015.69 1015.66 1015.57 1015.44 1015.28 1015.11 1014.93 1014.73 1014.51 1014.28
1009.35 1009.76 1010.09 1010.36 1010.56 1010.70 1010.81 1010.89 1010.98 1011.09 1011.23 1011.41 1011.61 1011.80 1011.97 1012.10 1012.18 1012.23 1012.26 1012.31 1012.41 1012.58 1012.84 1013.17 1013.53 1013.89 1014.20 1014.44 1014.60 1014.67 1014.69 1014.69 1014.70 1014.74 1014.83 1014.95 1015.08 1015.20 1015.28 1015.31 1015.28 1015.19 1015.07 1014.91 1014.73 1014.53 1014.33 1014.11 1013.87
1009.69 1010.10 1010.43 1010.68 1010.86 1010.98 1011.06 1011.10 1011.14 1011.19 1011.26 1011.37 1011.49 1011.63 1011.75 1011.85 1011.92 1011.97 1012.01 1012.07 1012.19 1012.38 1012.65 1012.98 1013.34 1013.70 1014.02 1014.26 1014.41 1014.48 1014.49 1014.47 1014.45 1014.47 1014.53 1014.62 1014.74 1014.86 1014.95 1014.99 1014.97 1014.90 1014.78 1014.62 1014.44 1014.25 1014.04 1013.82 1013.59
1010.01 1010.41 1010.73 1010.97 1011.15 1011.25 1011.29 1011.29 1011.27 1011.24 1011.23 1011.26 1011.31 1011.39 1011.47 1011.55 1011.61 1011.65 1011.70 1011.78 1011.90 1012.10 1012.36 1012.69 1013.06 1013.43 1013.75 1014.01 1014.18 1014.27 1014.28 1014.27 1014.24 1014.24 1014.28 1014.36 1014.47 1014.59 1014.69 1014.74 1014.74 1014.68 1014.58 1014.43 1014.25 1014.06 1013.85 1013.63 1013.39
1010.26 1010.65 1010.96 1011.20 1011.37 1011.46 1011.47 1011.42 1011.33 1011.23 1011.14 1011.08 1011.06 1011.08 1011.13 1011.19 1011.24 1011.30 1011.36 1011.44 1011.57 1011.75 1012.01 1012.34 1012.71 1013.08 1013.43 1013.72 1013.93 1014.05 1014.10 1014.10 1014.08 1014.08 1014.11 1014.18 1014.28 1014.39 1014.49 1014.56 1014.58 1014.54 1014.45 1014.32 1014.14 1013.95 1013.74 1013.52 1013.28
1010.42 1010.79 1011.10 1011.35 1011.52 1011.59 1011.58 1011.48 1011.32 1011.14 1010.96 1010.82 1010.73 1010.70 1010.72 1010.77 1010.83 1010.90 1010.97 1011.06 1011.19 1011.37 1011.62 1011.94 1012.31 1012.71 1013.08 1013.42 1013.67 1013.84 1013.93 1013.96 1013.96 1013.97 1013.99 1014.05 1014.14 1014.25 1014.36 1014.44 1014.48 1014.46 1014.39 1014.26 1014.10 1013.91 1013.70 1013.47 1013.24
1010.50 1010.85 1011.16 1011.42 1011.60 1011.68 1011.64 1011.50 1011.27 1010.99 1010.72 1010.49 1010.33 1010.24 1010.23 1010.28 1010.35 1010.44 1010.54 1010.65 1010.78 1010.97 1011.21 1011.53 1011.91 1012.32 1012.73 1013.11 1013.43 1013.65 1013.80 1013.86 1013.89 1013.89 1013.91 1013.96 1014.04 1014.15 1014.26 1014.36 1014.41 1014.42 1014.36 1014.26 1014.10 1013.92 1013.71 1013.50 1013.27
1010.50 1010.84 1011.17 1011.46 1011.67 1011.76 1011.70 1011.51 1011.20 1010.83 1010.45 1010.11 1009.86 1009.72 1009.67 1009.70 1009.80 1009.91 1010.04 1010.17 1010.33 1010.53 1010.78 1011.10 1011.49 1011.93 1012.38 1012.81 1013.18 1013.47 1013.66 1013.77 1013.81 1013.82 1013.84 1013.87 1013.94 1014.04 1014.16 1014.27 1014.36 1014.39 1014.37 1014.29 1014.16 1013.99 1013.79 1013.59 1013.37
1010.48 1010.83 1011.20 1011.54 1011.78 1011.89 1011.82 1011.57 1011.18 1010.69 1010.18 1009.72 1009.36 1009.13 1009.03 1009.05 1009.14 1009.29 1009.45 1009.63 1009.82 1010.04 1010.31 1010.65 1011.06 1011.53 1012.02 1012.50 1012.92 1013.26 1013.50 1013.64 1013.70 1013.72 1013.72 1013.74 1013.80 1013.90 1014.03 1014.16 1014.28 1014.36 1014.38 1014.34 1014.24 1014.10 1013.93 1013.74 1013.54
1010.48 1010.87 1011.31 1011.71 1012.01 1012.14 1012.05 1011.74 1011.24 1010.61 1009.96 1009.34 1008.85 1008.51 1008.33 1008.31 1008.40 1008.57 1008.77 1008.99 1009.22 1009.48 1009.78 1010.15 1010.59 1011.09 1011.61 1012.13 1012.60 1012.98 1013.26 1013.43 1013.50 1013.52 1013.52 1013.53 1013.58 1013.68 1013.82 1013.99 1014.16 1014.29 1014.37 1014.39 1014.34 1014.24 1014.10 1013.93 1013.75
1010.57 1011.03 1011.54 1012.03 1012.38 1012.53 1012.41 1012.03 1011.41 1010.63 1009.80 1009.01 1008.35 1007.88 1007.60 1007.52 1007.59 1007.76 1007.99 1008.25 1008.53 1008.83 1009.18 1009.58 1010.05 1010.57 1011.13 1011.68 1012.18 1012.60 1012.91 1013.09 1013.18 1013.20 1013.19 1013.20 1013.25 1013.36 1013.53 1013.73 1013.95 1014.15 1014.31 1014.39 1014.41 1014.36 1014.25 1014.11 1013.95
1010.75 1011.30 1011.91 1012.48 1012.89 1013.05 1012.90 1012.43 1011.68 1010.74 1009.73 1008.75 1007.91 1007.28 1006.88 1006.72 1006.74 1006.90 1007.15 1007.45 1007.77 1008.11 1008.49 1008.93 1009.42 1009.97 1010.55 1011.13 1011.65 1012.09 1012.42 1012.63 1012.72 1012.75 1012.74 1012.75 1012.80 1012.92 1013.12 1013.37 1013.65 1013.92 1014.15 1014.31 1014.40 1014.40 1014.34 1014.23 1014.10
1011.03 1011.68 1012.38 1013.02 1013.47 1013.63 1013.44 1012.89 1012.01 1010.91 1009.72 1008.55 1007.54 1006.74 1006.22 1005.95 1005.91 1006.05 1006.29 1006.61 1006.96 1007.33 1007.75 1008.21 1008.72 1009.28 1009.88 1010.46 1011.01 1011.46 1011.81 1012.03 1012.14 1012.17 1012.17 1012.18 1012.25 1012.39 1012.62 1012.91 1013.25 1013.59 1013.89 1014.12 1014.27 1014.33 1014.32 1014.24 1014.13
1011.35 1012.09 1012.88 1013.56 1014.04 1014.18 1013.94 1013.31 1012.32 1011.08 1009.74 1008.41 1007.24 1006.30 1005.65 1005.28 1005.17 1005.26 1005.48 1005.79 1006.15 1006.54 1006.97 1007.44 1007.97 1008.53 1009.13 1009.72 1010.27 1010.73 1011.09 1011.33 1011.46 1011.51 1011.52 1011.55 1011.63 1011.79 1012.04 1012.38 1012.76 1013.15 1013.51 1013.81 1014.02 1014.13 1014.15 1014.10 1014.01
1011.65 1012.46 1013.29 1014.00 1014.47 1014.58 1014.29 1013.59 1012.52 1011.19 1009.73 1008.30 1007.01 1005.96 1005.20 1004.74 1004.55 1004.58 1004.77 1005.06 1005.41 1005.79 1006.22 1006.69 1007.20 1007.76 1008.34 1008.93 1009.48 1009.95 1010.32 1010.58 1010.74 1010.81 1010.85 1010.90 1011.00 1011.18 1011.46 1011.82 1012.23 1012.66 1013.06 1013.40 1013.65 1013.79 1013.85 1013.82 1013.75
1011.86 1012.71 1013.53 1014.22 1014.65 1014.72 1014.39 1013.64 1012.53 1011.15 1009.65 1008.17 1006.82 1005.71 1004.88 1004.35 1004.10 1004.07 1004.21 1004.45 1004.77 1005.13 1005.53 1005.97 1006.47 1007.00 1007.57 1008.15 1008.69 1009.17 1009.56 1009.85 1010.04 1010.15 1010.22 1010.30 1010.43 1010.62 1010.91 1011.28 1011.71 1012.15 1012.57 1012.93 1013.21 1013.38 1013.45 1013.44 1013.38
1011.94 1012.76 1013.53 1014.15 1014.51 1014.52 1014.15 1013.38 1012.28 1010.92 1009.45 1007.99 1006.66 1005.54 1004.69 1004.12 1003.82 1003.73 1003.81 1004.00 1004.27 1004.58 1004.95 1005.35 1005.81 1006.32 1006.87 1007.42 1007.97 1008.46 1008.87 1009.19 1009.42 1009.58 1009.69 1009.81 1009.96 1010.17 1010.46 1010.83 1011.26 1011.70 1012.11 1012.48 1012.76 1012.94 1013.02 1013.02 1012.96
1011.87 1012.61 1013.28 1013.79 1014.05 1013.99 1013.58 1012.82 1011.76 1010.49 1009.11 1007.74 1006.49 1005.42 1004.60 1004.03 1003.69 1003.56 1003.58 1003.71 1003.91 1004.18 1004.49 1004.85 1005.27 1005.74 1006.26 1006.80 1007.34 1007.84 1008.28 1008.64 1008.91 1009.12 1009.28 1009.44 1009.62 1009.84 1010.14 1010.50 1010.90 1011.33 1011.73 1012.08 1012.35 1012.52 1012.61 1012.60 1012.54
Thickness
5825 5828 5829 5822 5813 5803 5790 5795 5802 5799 5796 5800 5800 5797 5790 5783 5778 5767 5785 5792 5791 5789 5785 5780 5777 5777 5776 5775 5774 5773 5773 5772 5770 5769 5767 5766 5765 5764 5763 5763 5763 5762 5761 5761 5760 5759 5759 5758 5758
5834 5832 5826 5821 5810 5791 5786 5798 5797 5797 5800 5804 5801 5798 5791 5784 5788 5785 5788 5790 5791 5789 5785 5781 5776 5776 5775 5774 5773 5772 5771 5770 5769 5768 5766 5765 5764 5763 5762 5762 5761 5761 5760 5760 5759 5758 5758 5758 5757
5836 5833 5825 5819 5805 5794 5788 5799 5799 5802 5806 5803 5797 5796 5790 5783 5787 5788 5791 5792 5792 5789 5785 5779 5776 5775 5774 5773 5772 5771 5770 5769 5768 5767 5765 5764 5763 5763 5762 5761 5761 5760 5759 5759 5758 5758 5757 5757 5756
5836 5831 5828 5814 5797 5802 5803 5805 5806 5802 5803 5804 5800 5790 5789 5791 5792 5793 5793 5793 5792 5789 5786 5779 5775 5774 5773 5772 5771 5770 5769 5768 5767 5766 5765 5763 5762 5762 5761 5760 5760 5759 5759 5758 5758 5757 5757 5756 5756
5839 5831 5816 5804 5801 5807 5812 5812 5811 5804 5800 5801 5799 5788 5782 5790 5797 5795 5793 5793 5791 5789 5786 5780 5774 5773 5772 5771 5770 5769 5768 5767 5766 5765 5764 5763 5762 5761 5760 5760 5759 5759 5758 5758 5758 5757 5757 5756 5756
5834 5831 5810 5798 5800 5808 5814 5816 5812 5805 5802 5801 5798 5789 5782 5791 5793 5793 5793 5792 5791 5789 5786 5780 5774 5773 5771 5770 5770 5769 5768 5766 5765 5764 5763 5762 5761 5760 5760 5760 5759 5759 5759 5758 5758 5757 5757 5756 5756
5829 5823 5810 5806 5802 5805 5811 5820 5813 5806 5801 5802 5805 5791 5785 5789 5793 5794 5793 5791 5790 5788 5786 5783 5779 5774 5771 5770 5769 5768 5767 5766 5765 5764 5763 5762 5761 5761 5760 5760 5759 5759 5759 5758 5758 5758 5758 5757 5757
5840 5828 5816 5813 5806 5805 5817 5819 5817 5811 5805 5811 5809 5794 5786 5790 5794 5794 5792 5789 5787 5786 5785 5783 5781 5778 5776 5773 5769 5768 5767 5766 5765 5764 5763 5763 5762 5762 5761 5761 5760 5759 5759 5759 5759 5759 5758 5757 5757
5843 5826 5813 5814 5811 5812 5821 5816 5816 5821 5812 5808 5809 5806 5802 5798 5795 5791 5787 5785 5783 5783 5784 5784 5782 5780 5778 5776 5772 5769 5767 5766 5766 5765 5764 5764 5766 5766 5765 5763 5761 5760 5760 5760 5760 5759 5759 5758 5758
5838 5821 5818 5828 5828 5822 5821 5818 5816 5813 5805 5802 5801 5802 5801 5796 5793 5789 5785 5783 5782 5781 5783 5783 5783 5781 5779 5777 5775 5772 5772 5769 5768 5767 5767 5766 5766 5766 5766 5763 5762 5761 5761 5761 5761 5760 5760 5761 5764
5837 5825 5830 5834 5836 5831 5824 5821 5823 5813 5803 5804 5801 5797 5797 5794 5793 5791 5789 5787 5786 5784 5783 5783 5783 5781 5779 5777 5776 5774 5772 5770 5770 5768 5767 5766 5767 5768 5768 5766 5765 5764 5764 5765 5764 5765 5766 5767 5767
5834 5834 5837 5836 5838 5832 5827 5825 5820 5816 5813 5818 5813 5806 5799 5795 5794 5792 5790 5789 5787 5785 5783 5784 5782 5779 5778 5777 5776 5773 5773 5772 5772 5769 5767 5768 5768 5768 5768 5767 5767 5766 5766 5766 5767 5766 5766 5766 5766
5832 5832 5838 5840 5838 5835 5831 5824 5820 5816 5820 5821 5815 5807 5801 5799 5797 5796 5794 5791 5788 5785 5784 5784 5781 5778 5776 5775 5775 5775 5773 5773 5772 5769 5768 5768 5769 5768 5769 5767 5766 5768 5768 5768 5766 5767 5766 5766 5766
5835 5836 5836 5838 5836 5833 5826 5823 5820 5816 5821 5816 5810 5806 5805 5801 5799 5796 5793 5790 5788 5786 5786 5785 5782 5779 5776 5775 5774 5775 5774 5772 5773 5771 5770 5769 5769 5769 5769 5768 5767 5768 5768 5768 5766 5767 5766 5767 5768
5841 5832 5831 5834 5834 5832 5828 5814 5816 5821 5820 5812 5809 5807 5806 5804 5802 5798 5796 5793 5791 5789 5787 5785 5783 5781 5778 5777 5776 5776 5776 5775 5774 5772 5770 5769 5770 5769 5769 5770 5769 5769 5768 5767 5767 5767 5767 5767 5768
5837 5829 5820 5829 5833 5833 5823 5806 5818 5824 5817 5810 5809 5808 5805 5804 5804 5802 5800 5797 5795 5792 5789 5786 5787 5784 5780 5778 5776 5778 5777 5776 5775 5774 5773 5770 5770 5769 5769 5770 5771 5769 5769 5769 5768 5768 5767 5767 5767
5828 5819 5817 5824 5834 5833 5824 5814 5821 5826 5819 5812 5810 5809 5806 5804 5804 5804 5803 5800 5797 5794 5791 5788 5787 5785 5783 5780 5778 5778 5777 5776 5776 5775 5775 5772 5771 5771 5771 5771 5771 5770 5770 5770 5770 5770 5767 5766 5765
5816 5819 5818 5819 5830 5830 5823 5821 5824 5825 5821 5815 5813 5811 5808 5806 5805 5807 5805 5804 5800 5797 5794 5791 5788 5786 5784 5782 5780 5779 5778 5777 5777 5776 5775 5773 5772 5772 5772 5772 5771 5771 5770 5768 5768 5765 5765 5765 5765
5828 5822 5819 5824 5833 5827 5822 5821 5824 5825 5821 5817 5814 5813 5810 5810 5813 5812 5809 5806 5803 5799 5795 5792 5790 5787 5784 5782 5780 5778 5777 5778 5778 5777 5776 5774 5773 5772 5771 5772 5770 5770 5769 5767 5767 5766 5764 5765 5766
5826 5820 5820 5825 5831 5824 5821 5821 5828 5827 5822 5821 5818 5816 5814 5813 5812 5810 5809 5808 5805 5801 5797 5793 5790 5789 5786 5784 5782 5781 5779 5779 5779 5778 5775 5774 5773 5772 5773 5770 5770 5769 5767 5765 5765 5763 5762 5764 5765
5823 5822 5821 5819 5824 5826 5819 5815 5821 5826 5827 5824 5823 5823 5822 5818 5814 5811 5809 5808 5807 5803 5799 5796 5792 5790 5788 5786 5784 5782 5778 5777 5776 5775 5774 5773 5772 5771 5770 5770 5770 5768 5767 5766 5764 5763 5761 5760 5762
5817 5831 5827 5821 5814 5814 5815 5803 5817 5824 5821 5821 5822 5823 5823 5821 5818 5815 5812 5809 5808 5805 5803 5798 5794 5791 5788 5786 5784 5781 5777 5774 5775 5774 5774 5772 5771 5770 5769 5768 5767 5765 5766 5764 5764 5765 5762 5759 5758
5826 5833 5827 5823 5817 5812 5816 5807 5817 5824 5817 5820 5824 5824 5826 5825 5822 5818 5815 5813 5811 5809 5805 5800 5794 5791 5788 5786 5784 5780 5778 5778 5777 5775 5772 5771 5771 5769 5767 5767 5765 5763 5763 5762 5761 5760 5760 5760 5758
5831 5826 5823 5822 5819 5798 5808 5803 5806 5821 5819 5823 5827 5825 5825 5825 5823 5820 5819 5815 5811 5809 5805 5800 5794 5790 5788 5785 5783 5779 5777 5775 5772 5771 5770 5770 5770 5768 5766 5765 5763 5762 5760 5759 5759 5758 5758 5757 5755
5825 5812 5799 5795 5797 5799 5812 5804 5809 5826 5831 5829 5828 5827 5827 5826 5823 5819 5817 5814 5810 5807 5804 5800 5794 5789 5787 5785 5782 5779 5776 5773 5770 5769 5768 5768 5768 5766 5764 5763 5760 5759 5757 5757 5757 5756 5755 5754 5751
5820 5818 5795 5782 5788 5802 5806 5802 5819 5832 5834 5834 5833 5831 5828 5827 5825 5821 5818 5815 5811 5808 5804 5800 5794 5789 5787 5784 5780 5778 5774 5773 5772 5769 5768 5766 5766 5765 5763 5760 5758 5757 5756 5756 5755 5755 5753 5751 5750
5815 5815 5826 5809 5801 5794 5803 5810 5821 5831 5829 5830 5830 5828 5825 5825 5823 5821 5819 5816 5812 5808 5804 5800 5794 5788 5785 5783 5779 5775 5772 5770 5769 5767 5765 5765 5763 5762 5760 5758 5756 5755 5754 5753 5751 5752 5749 5748 5748
5824 5822 5813 5804 5781 5779 5792 5800 5807 5814 5818 5822 5824 5824 5824 5824 5822 5821 5819 5816 5813 5809 5804 5800 5794 5787 5784 5781 5777 5774 5771 5767 5765 5764 5762 5760 5759 5758 5756 5754 5753 5752 5751 5749 5747 5747 5746 5743 5742
5808 5807 5806 5805 5801 5783 5780 5796 5825 5820 5821 5820 5822 5824 5823 5822 5821 5819 5817 5815 5812 5808 5803 5797 5791 5786 5782 5779 5775 5772 5770 5766 5763 5760 5759 5757 5756 5754 5752 5750 5749 5748 5747 5745 5743 5742 5741 5738 5737
5814 5810 5805 5791 5786 5791 5788 5798 5830 5827 5827 5824 5822 5822 5822 5820 5820 5818 5815 5812 5808 5805 5800 5795 5791 5786 5781 5778 5774 5770 5767 5764 5761 5759 5757 5755 5752 5751 5749 5747 5745 5744 5743 5741 5738 5736 5735 5732 5731